Location: Albany
(35.0000°S, 118.0000°E)
Time: 19:38:55
(UTC-05:00)

Vanguard 3 - Visible Passes

Search period start: 13 December 2017 00:00
Search period end: 23 December 2017 00:00
Orbit: 509 x 3263 km, 33.3° (Epoch: 13 December)

Date Brightness Start Highest point End Pass type
(mag) Time Alt. Az. Time Alt. Az. Time Alt. Az.
13 Dec 10.0 08:11:00 10° N 08:21:36 29° NE 08:36:05 10° E visible
13 Dec 9.8 10:20:18 10° NW 10:35:27 64° NNE 10:55:11 10° ESE visible
13 Dec 10.0 12:33:50 10° W 12:52:33 85° N 13:11:36 10° E visible
13 Dec 10.0 14:50:01 10° W 15:10:16 77° NNW 15:25:56 10° ENE visible
14 Dec 10.3 07:01:24 10° NNE 07:07:35 15° NE 07:15:08 10° E visible
14 Dec 9.7 09:06:56 10° NW 09:19:39 49° NE 09:37:48 10° ESE visible
14 Dec 9.8 11:18:38 10° WNW 11:35:17 79° NNE 11:55:24 10° E visible
14 Dec 10.0 13:33:30 10° W 13:53:09 84° N 14:11:03 10° ENE visible
15 Dec 9.8 07:54:45 10° NNW 08:04:52 32° NE 08:19:27 10° E visible
15 Dec 9.7 10:04:20 10° NW 10:18:38 68° NNE 10:38:29 10° E visible
15 Dec 9.9 12:17:41 10° W 12:35:44 85° N 12:55:19 10° E visible
15 Dec 10.0 14:33:27 10° W 14:53:27 74° NNW 15:09:57 10° ENE visible
16 Dec 10.1 06:44:33 10° NNE 06:50:59 17° NE 06:59:16 10° E visible
16 Dec 9.6 08:50:59 10° NW 09:02:55 52° NNE 09:20:57 10° ESE visible
16 Dec 9.8 11:02:41 10° WNW 11:18:30 81° NNE 11:38:49 10° E visible
16 Dec 10.0 13:17:12 10° W 13:36:18 82° N 13:54:54 10° ENE visible
17 Dec 9.6 07:38:42 10° NNW 07:48:15 35° NE 08:02:43 10° E visible
17 Dec 9.5 09:48:30 10° WNW 10:01:56 71° NNE 10:21:41 10° E visible
17 Dec 9.9 12:01:40 10° W 12:18:54 85° N 12:38:55 10° E visible
17 Dec 10.0 14:16:58 10° W 14:36:32 71° NNW 14:53:48 10° ENE visible
18 Dec 9.4 08:35:10 10° NW 08:46:18 56° NNE 09:04:02 10° ESE visible
18 Dec 9.7 10:46:52 10° WNW 11:01:47 83° N 11:22:10 10° E visible
18 Dec 10.0 13:01:00 10° W 13:19:25 80° NNW 13:38:36 10° ENE visible
18 Dec 10.1 15:17:06 10° WSW 15:36:04 54° NNW 15:51:44 10° NE visible
19 Dec 9.5 07:22:49 10° NNW 07:31:45 37° NE 07:45:54 10° E visible
19 Dec 9.4 09:32:49 10° WNW 09:45:21 74° NNE 10:04:48 10° E visible
19 Dec 9.8 11:45:44 10° W 12:02:08 85° N 12:22:25 10° E visible
19 Dec 10.0 14:00:36 10° W 14:19:34 68° NNW 14:37:31 10° NE visible
20 Dec 9.2 08:19:31 10° NW 08:29:51 59° NNE 08:47:04 10° E visible
20 Dec 9.6 10:31:08 10° W 10:45:10 84° N 11:05:26 10° E visible
20 Dec 9.9 12:44:54 10° W 13:02:32 78° NNW 13:22:09 10° ENE visible
20 Dec 10.2 15:00:38 10° W 15:19:03 50° NW 15:35:18 10° NE visible
21 Dec 9.2 07:07:05 10° NNW 07:15:23 40° NE 07:29:04 10° E visible
21 Dec 9.3 09:17:12 10° WNW 09:28:53 77° NNE 09:47:52 10° E visible
21 Dec 9.8 11:29:54 10° W 11:45:24 84° N 12:05:48 10° ENE visible
21 Dec 10.0 13:44:21 10° W 14:02:34 64° NNW 14:21:01 10° NE visible
22 Dec 9.1 08:03:58 10° NW 08:13:32 63° NNE 08:30:05 10° E visible
22 Dec 9.5 10:15:31 10° W 10:28:38 85° N 10:48:35 10° E visible
22 Dec 9.8 12:28:55 10° W 12:45:39 75° NNW 13:05:33 10° ENE visible
22 Dec 10.2 14:44:21 10° W 15:01:59 46° NW 15:18:38 10° NNE visible
